COSMOS 2026

导读

COSMOS 2026是由独联体(CIS)发射的一颗卫星,于1989年6月7日格林尼治标准时间9时成功入轨。作为苏联/俄罗斯“宇宙”系列卫星家族成员,它承载着特定航天科研或应用任务。“宇宙”系列是苏联/俄罗斯规模最大的卫星星座群,涵盖多种航天领域,该卫星的成功发射进一步延续了独联体在航天领域持续探索的步伐,为空间科学研究积累了宝贵数据,在冷战末期航天发展进程中留下了印记。

基本信息
目录编号:
20045
目录名称:
COSMOS 2026
国际标识:
1989-042A
轨道中心:
EARTH
卫星名称:
COSMOS 2026
卫星全名:
--
卫星状态:
在轨 (已飞行13610 天)
发射日期:
1989-06-07 UTC
国别 :
俄罗斯(独联体) (CIS)
星等 :
--
轨道信息
数据来源 国际轨道数据
星历时间: 2026-09-11T02:26:19+0800
11小时前
查看轨道信息
半长轴: 7355.285km
偏心率: 0.0041166
轨道倾角: 82.945°
近地点辐角 82.902°
升交点赤经 344.623°
平近点角 34.648°
近地点: 946.869km
远地点: 1007.427km
周期: 104.631分钟
每日圈数: 13.762697
详细信息
使用方式:
暂无
2D轨道图
3D轨道图
轨道高度分析图
轨道倾角分析图
轨道综合分析图
查看轨道综合分析图
与全量物体交会距离演化趋势
与全量物体交会风险概率演化趋势